Date String (YYYY-MM-DD hh:mm:ss) UTC,Instrument flags,absolute air pressure of the measurement (hPa),sample flow rate (lpm),inlet stack bypass flow (lpm),air temperature of the measurement (°C),ambient temperature measured by the external sensor (°C),aerosol sample conditioner tube jacket temperature (°C),OPC LED temperature (°C),internal box temperature (°C),relative humidity of the measurement (%),span deviation,mass concentration of particles derived from Lorenz-Mie calculation of OPC scattering (μg/m³),mass concentration of particles derived from Lorenz-Mie calculation of OPC scattering (μg/m³),mass concentration of particles derived from Lorenz-Mie calculation of OPC scattering (μg/m³)
DateTimeUTC,F1_M11,P_M11,Q1_M11,Q2_M11,T1_M11,T2_M11,T3_M11,T4_M11,T5_M11,U1_M11,ZSPAN_M11,X2_M11,X0_M11,X1_M11
2023-07-09 21:00:00,SystemResetWarning,0832.0,5.02,000.00,029.9,025.0,000.0,037.8,030.4,32.9,-000.8,0006.46,0011.72,0005.95
2023-07-09 21:01:00,SystemResetWarning,0832.0,4.97,000.00,029.8,025.3,000.0,037.8,030.3,35.8,-000.7,0006.49,0010.96,0005.96
2023-07-09 21:02:00,SystemResetWarning,0832.0,5.03,000.00,029.9,025.8,000.0,037.9,030.5,35.1,-000.9,0006.49,0010.94,0005.98
2023-07-09 21:03:00,SystemResetWarning,0832.0,4.96,000.00,030.1,026.3,000.0,037.9,030.7,33.5,-001.3,0006.53,0011.13,0005.98
2023-07-09 21:04:00,SystemResetWarning,0832.0,5.03,000.00,030.2,026.7,000.0,037.9,030.8,33.0,-001.5,0006.51,0011.15,0005.96
2023-07-09 21:05:00,SystemResetWarning,0832.0,4.99,000.00,030.3,027.0,000.0,038.0,030.8,33.3,-001.5,0006.53,0011.14,0005.96
2023-07-09 21:06:00,SystemResetWarning,0832.1,4.99,000.00,030.3,027.4,000.0,038.0,030.9,33.8,-001.4,0006.51,0010.77,0005.94
2023-07-09 21:07:00,SystemResetWarning,0832.1,5.01,000.00,030.4,027.6,000.0,038.1,031.0,33.3,-001.6,0006.46,0010.70,0005.92
2023-07-09 21:08:00,SystemResetWarning,0832.1,5.00,000.00,030.4,027.7,000.0,038.1,031.1,33.6,-002.0,0006.44,0010.81,0005.91
2023-07-09 21:09:00,SystemResetWarning,0832.1,4.98,000.00,030.4,026.3,000.0,038.1,030.9,33.2,-002.1,0006.44,0011.57,0005.90
2023-07-09 21:10:00,SystemResetWarning,0832.0,5.00,000.00,030.4,025.1,000.0,038.0,030.7,33.3,-001.7,0006.41,0011.52,0005.90
2023-07-09 21:11:00,SystemResetWarning,0832.0,5.01,000.00,030.3,025.0,000.0,038.0,030.6,33.0,-001.4,0006.43,0010.83,0005.92
2023-07-09 21:12:00,SystemResetWarning,0832.0,5.00,000.00,030.2,025.3,000.0,038.0,030.4,33.3,-001.1,0006.47,0011.08,0005.93
2023-07-09 21:13:00,SystemResetWarning,0832.0,5.00,000.00,030.1,025.7,000.0,038.1,030.5,33.5,-001.3,0006.49,0011.12,0005.92
2023-07-09 21:14:00,SystemResetWarning,0832.1,4.99,000.00,030.0,026.2,000.0,038.1,030.6,34.1,-001.3,0006.46,0011.43,0005.94
2023-07-09 21:15:00,SystemResetWarning,0832.0,4.99,000.00,030.0,026.6,000.0,038.1,030.7,34.6,-001.6,0006.51,0012.28,0005.97
2023-07-09 21:16:00,SystemResetWarning,0832.0,5.03,000.00,030.1,027.0,000.0,038.2,030.8,34.5,-001.8,0006.55,0012.37,0006.00
2023-07-09 21:17:00,SystemResetWarning,0832.0,4.96,000.00,030.2,027.3,000.0,038.2,030.9,35.3,-001.9,0006.59,0012.41,0006.04
2023-07-09 21:18:00,SystemResetWarning,0832.1,5.04,000.00,030.4,027.6,000.0,038.2,031.1,34.1,-002.0,0006.65,0012.67,0006.07
2023-07-09 21:19:00,SystemResetWarning,0832.1,4.98,000.00,030.5,027.8,000.0,038.3,031.2,33.0,-001.6,0006.72,0013.85,0006.10
2023-07-09 21:20:00,SystemResetWarning,0832.1,5.02,000.00,030.7,027.5,000.0,038.2,031.2,33.1,-001.3,0006.72,0013.38,0006.11
2023-07-09 21:21:00,SystemResetWarning,0832.0,4.98,000.00,030.7,026.0,000.0,038.2,031.0,32.7,-001.4,0006.77,0013.23,0006.14
2023-07-09 21:22:00,SystemResetWarning,0832.0,5.01,000.00,030.7,025.1,000.0,038.1,030.8,33.3,-001.6,0006.79,0013.44,0006.16
2023-07-09 21:23:00,SystemResetWarning,0832.0,5.02,000.00,030.6,025.0,000.0,038.1,030.6,33.5,-002.1,0006.80,0013.40,0006.21
2023-07-09 21:24:00,SystemResetWarning,0832.0,5.00,000.00,030.4,025.4,000.0,038.2,030.5,33.7,-001.9,0006.88,0013.55,0006.27
2023-07-09 21:25:00,SystemResetWarning,0832.0,5.00,000.00,030.4,025.9,000.0,038.3,030.6,33.1,-001.5,0006.95,0013.56,0006.31
2023-07-09 21:26:00,SystemResetWarning,0832.0,4.99,000.00,030.4,026.3,000.0,038.3,030.7,33.0,-001.1,0006.98,0013.07,0006.34
2023-07-09 21:27:00,SystemResetWarning,0832.0,5.00,000.00,030.4,026.8,000.0,038.3,030.8,33.2,-000.6,0007.06,0013.20,0006.38
2023-07-09 21:28:00,SystemResetWarning,0832.1,5.00,000.00,030.4,027.1,000.0,038.4,030.9,33.8,0000.1,0007.10,0013.24,0006.41
2023-07-09 21:29:00,SystemResetWarning,0832.1,5.00,000.00,030.4,027.4,000.0,038.4,031.0,34.3,0000.2,0007.13,0013.21,0006.45
2023-07-09 21:30:00,SystemResetWarning,0832.1,5.00,000.00,030.4,027.7,000.0,038.4,031.1,33.8,0000.0,0007.16,0012.02,0006.49
2023-07-09 21:31:00,SystemResetWarning,0832.1,4.98,000.00,030.4,027.7,000.0,038.4,031.1,33.6,-000.4,0007.23,0011.78,0006.55
2023-07-09 21:32:00,SystemResetWarning,0832.2,5.00,000.00,030.4,026.3,000.0,038.3,031.0,34.6,-000.6,0007.28,0011.85,0006.62
2023-07-09 21:33:00,SystemResetWarning,0832.1,5.01,000.00,030.3,025.1,000.0,038.2,030.8,34.5,-000.8,0007.35,0011.91,0006.68
2023-07-09 21:34:00,SystemResetWarning,0832.1,5.01,000.00,030.2,025.0,000.0,038.1,030.6,33.9,-000.5,0007.41,0011.85,0006.73
2023-07-09 21:35:00,SystemResetWarning,0832.1,4.99,000.00,030.1,025.3,000.0,038.2,030.5,34.1,-000.8,0007.42,0011.79,0006.76
2023-07-09 21:36:00,SystemResetWarning,0832.1,5.00,000.00,030.0,025.7,000.0,038.2,030.5,34.8,-001.3,0007.40,0012.45,0006.76
2023-07-09 21:37:00,SystemResetWarning,0832.0,5.00,000.00,030.0,026.2,000.0,038.2,030.7,35.1,-001.2,0007.45,0012.27,0006.81
2023-07-09 21:38:00,SystemResetWarning,0832.1,5.01,000.00,030.2,026.6,000.0,038.2,030.8,34.7,-001.3,0007.45,0012.20,0006.83
2023-07-09 21:39:00,SystemResetWarning,0832.1,5.00,000.00,030.4,027.0,000.0,038.2,031.0,34.3,-002.0,0007.47,0012.20,0006.85
2023-07-09 21:40:00,SystemResetWarning,0832.1,4.97,000.00,030.5,027.3,000.0,038.3,031.0,34.6,-002.0,0007.57,0012.62,0006.93
2023-07-09 21:41:00,SystemResetWarning,0832.1,5.04,000.00,030.6,027.6,000.0,038.3,031.1,34.6,-002.1,0007.68,0013.10,0007.04
2023-07-09 21:42:00,SystemResetWarning,0832.0,4.96,000.00,030.8,027.9,000.0,038.4,031.3,35.1,-002.2,0007.73,0013.70,0007.10
2023-07-09 21:43:00,SystemResetWarning,0832.1,5.01,000.00,031.0,027.5,000.0,038.4,031.3,32.9,-001.8,0007.80,0013.94,0007.13
2023-07-09 21:44:00,SystemResetWarning,0832.1,4.98,000.00,031.1,026.0,000.0,038.3,031.1,32.3,-001.5,0007.81,0013.81,0007.15
2023-07-09 21:45:00,SystemResetWarning,0832.0,5.02,000.00,031.2,025.1,000.0,038.3,031.0,32.9,-001.4,0007.81,0014.49,0007.18
2023-07-09 21:46:00,SystemResetWarning,0832.0,5.00,000.00,031.1,025.1,000.0,038.3,030.7,33.0,-001.3,0007.87,0014.79,0007.24
2023-07-09 21:47:00,SystemResetWarning,0832.0,5.00,000.00,030.9,025.5,000.0,038.5,030.7,32.8,-001.5,0007.91,0013.99,0007.28
2023-07-09 21:48:00,SystemResetWarning,0832.1,5.01,000.00,030.9,026.0,000.0,038.5,030.8,33.1,-001.7,0007.91,0013.82,0007.27
2023-07-09 21:49:00,SystemResetWarning,0832.0,5.00,000.00,030.9,026.4,000.0,038.6,030.9,32.8,-001.6,0007.86,0013.72,0007.24
2023-07-09 21:50:00,SystemResetWarning,0832.0,5.00,000.00,030.9,026.8,000.0,038.7,031.0,32.8,-001.4,0007.82,0013.72,0007.22
2023-07-09 21:51:00,SystemResetWarning,0832.1,5.00,000.00,030.9,027.2,000.0,038.7,031.0,33.3,-001.3,0007.75,0013.39,0007.16
2023-07-09 21:52:00,SystemResetWarning,0832.1,5.00,000.00,030.9,027.5,000.0,038.7,031.1,32.9,-001.2,0007.67,0012.91,0007.09
2023-07-09 21:53:00,SystemResetWarning,0832.1,5.00,000.00,030.9,027.7,000.0,038.8,031.2,33.3,-001.1,0007.61,0012.23,0007.06
2023-07-09 21:54:00,SystemResetWarning,0832.2,4.99,000.00,030.9,027.6,000.0,038.8,031.3,33.0,-001.2,0007.56,0012.11,0007.03
2023-07-09 21:55:00,SystemResetWarning,0832.2,5.00,000.00,030.9,026.2,000.0,038.6,031.1,33.4,-001.2,0007.55,0012.40,0007.01
2023-07-09 21:56:00,SystemResetWarning,0832.2,5.02,000.00,030.8,025.2,000.0,038.5,030.9,33.5,-001.3,0007.56,0011.75,0007.02
2023-07-09 21:57:00,SystemResetWarning,0832.1,5.00,000.00,030.7,025.1,000.0,038.5,030.7,33.3,-001.2,0007.55,0011.44,0007.00
2023-07-09 21:58:00,SystemResetWarning,0832.2,5.00,000.00,030.5,025.4,000.0,038.5,030.6,33.5,-000.7,0007.55,0011.77,0007.00
2023-07-09 21:59:00,SystemResetWarning,0832.2,5.00,000.00,030.4,025.9,000.0,038.6,030.7,34.7,-000.4,0007.57,0011.70,0007.03
